Location: Powder Track
(41.8531°N, 72.3584°W)
Time: 23:13:10
(UTC+00:00)

X-37B - Pass Details

Date: 26 June 2021
Orbit: 383 x 392 km, 45.0° (Epoch: 01 July)

Event Time Altitude Azimuth Distance (km) Brightness Sun altitude
Rises 03:57:11 0° 284° (WNW) 2,256 4.8 -23.6°
Reaches altitude 10° 03:59:18 10° 291° (WNW) 1,402 3.8 -23.6°
Enters shadow 04:00:53 25° 305° (NW) 813 2.6 -23.7°
